• In Belarus
  • List of Countries
  • For 7 days
  • Water Temperature
  • Satellite Maps
  • Weather Map
  • Weather Widgets
  • user-avatar
    Login

    Hourly Weather Horw

    Today, 13 December, Wednesday

    Time Temperature Precipitation Wind Pressure Humidity
    00:00 -5°C° 0 mm 2 mps 716 mmHg 89%
    01:00 -5°C° 0 mm 2 mps 716 mmHg 89%
    02:00 -5°C° 0 mm 2 mps 716 mmHg 86%
    03:00 -5°C° 0 mm 2 mps 716 mmHg 82%
    04:00 -5°C° 0 mm 2 mps 715 mmHg 78%
    05:00 -6°C° 0 mm 2 mps 715 mmHg 76%
    06:00 -6°C° 0 mm 2 mps 716 mmHg 75%
    07:00 -6°C° 0 mm 2 mps 716 mmHg 73%
    08:00 -4°C° 0 mm 2 mps 715 mmHg 71%
    09:00 -3°C° 0 mm 2 mps 715 mmHg 68%
    10:00 -2°C° 0 mm 2 mps 715 mmHg 66%
    11:00 +1°C° 0 mm 2 mps 714 mmHg 64%
    12:00 +3°C° 0 mm 2 mps 713 mmHg 62%
    13:00 +5°C° 0 mm 2 mps 712 mmHg 60%
    14:00 +4°C° 0.1 mm 2 mps 712 mmHg 63%
    15:00 +4°C° 0.1 mm 2 mps 711 mmHg 66%
    16:00 +3°C° 0.1 mm 2 mps 711 mmHg 69%
    17:00 +3°C° 0.3 mm 2 mps 710 mmHg 72%
    18:00 +2°C° 0.3 mm 3 mps 710 mmHg 75%
    19:00 +2°C° 0.3 mm 3 mps 710 mmHg 77%
    20:00 +2°C° 0.6 mm 3 mps 709 mmHg 79%
    21:00 +2°C° 0.6 mm 3 mps 708 mmHg 81%
    22:00 +1°C° 0.6 mm 4 mps 707 mmHg 82%
    23:00 +3°C° 0.6 mm 4 mps 707 mmHg 83%

    Tomorrow, 14 December, Thursday

    Time Temperature Precipitation Wind Pressure Humidity
    00:00 +3°C° 0.6 mm 4 mps 707 mmHg 83%
    01:00 +3°C° 0.6 mm 5 mps 707 mmHg 83%
    02:00 +3°C° 0.5 mm 5 mps 707 mmHg 85%
    03:00 +3°C° 0.5 mm 5 mps 707 mmHg 86%
    04:00 +5°C° 0.5 mm 5 mps 707 mmHg 87%
    05:00 +3°C° 0.5 mm 5 mps 707 mmHg 88%
    06:00 +3°C° 0.5 mm 5 mps 708 mmHg 88%
    07:00 +3°C° 0.5 mm 5 mps 708 mmHg 89%
    08:00 +4°C° 0.7 mm 4 mps 709 mmHg 89%
    09:00 +3°C° 0.7 mm 4 mps 709 mmHg 90%
    10:00 +3°C° 0.7 mm 3 mps 709 mmHg 91%
    11:00 +3°C° 0.7 mm 3 mps 708 mmHg 91%
    12:00 +3°C° 0.7 mm 3 mps 708 mmHg 91%
    13:00 +4°C° 0.7 mm 2 mps 708 mmHg 91%
    14:00 +4°C° 0.8 mm 2 mps 707 mmHg 91%
    15:00 +4°C° 0.8 mm 2 mps 706 mmHg 91%
    16:00 +4°C° 0.8 mm 2 mps 706 mmHg 91%
    17:00 +3°C° 0.7 mm 3 mps 705 mmHg 89%
    18:00 +3°C° 0.7 mm 3 mps 704 mmHg 87%
    19:00 +3°C° 0.7 mm 4 mps 704 mmHg 85%
    20:00 +3°C° 0.8 mm 4 mps 704 mmHg 84%
    21:00 +3°C° 0.8 mm 4 mps 703 mmHg 84%
    22:00 +3°C° 0.8 mm 4 mps 703 mmHg 84%
    23:00 +3°C° 1.7 mm 4 mps 703 mmHg 86%

    Day after tomorrow, 15 December, Friday

    Time Temperature Precipitation Wind Pressure Humidity
    00:00 +3°C° 1.7 mm 4 mps 702 mmHg 87%
    01:00 +3°C° 1.7 mm 4 mps 702 mmHg 88%
    02:00 +3°C° 1.9 mm 3 mps 702 mmHg 90%
    03:00 +3°C° 1.9 mm 3 mps 703 mmHg 92%
    04:00 +2°C° 1.9 mm 3 mps 703 mmHg 94%
    05:00 +2°C° 1.1 mm 3 mps 703 mmHg 94%
    06:00 +3°C° 1.1 mm 2 mps 703 mmHg 94%
    07:00 +2°C° 1.1 mm 2 mps 704 mmHg 94%
    08:00 +2°C° 0.3 mm 2 mps 704 mmHg 92%
    09:00 +2°C° 0.3 mm 2 mps 704 mmHg 91%
    10:00 +2°C° 0.3 mm 2 mps 704 mmHg 90%
    11:00 +2°C° 0.1 mm 2 mps 704 mmHg 88%
    12:00 +3°C° 0.1 mm 2 mps 704 mmHg 86%
    13:00 +2°C° 0.1 mm 3 mps 703 mmHg 85%
    14:00 +3°C° 0 mm 2 mps 703 mmHg 86%
    15:00 +2°C° 0 mm 2 mps 703 mmHg 88%
    16:00 +1°C° 0 mm 2 mps 703 mmHg 89%
    17:00 -1°C° 0 mm 2 mps 703 mmHg 89%
    18:00 -2°C° 0 mm 2 mps 703 mmHg 88%
    19:00 -3°C° 0 mm 2 mps 703 mmHg 88%
    20:00 -3°C° 0.1 mm 2 mps 704 mmHg 86%
    21:00 -3°C° 0.1 mm 2 mps 704 mmHg 84%
    22:00 -3°C° 0.1 mm 2 mps 704 mmHg 81%
    23:00 -3°C° 0.3 mm 2 mps 704 mmHg 84%

    16 December, Saturday

    Time Temperature Precipitation Wind Pressure Humidity
    00:00 -2°C° 0.3 mm 2 mps 705 mmHg 87%
    01:00 -2°C° 0.3 mm 3 mps 705 mmHg 89%
    02:00 -1°C° 0.4 mm 3 mps 706 mmHg 91%
    03:00 -1°C° 0.4 mm 3 mps 706 mmHg 92%
    04:00 -1°C° 0.4 mm 3 mps 707 mmHg 93%
    05:00 -1°C° 0.3 mm 3 mps 708 mmHg 93%
    06:00 -1°C° 0.3 mm 3 mps 708 mmHg 93%
    07:00 -1°C° 0.3 mm 3 mps 709 mmHg 93%
    08:00 -1°C° 0.3 mm 3 mps 709 mmHg 92%
    09:00 -1°C° 0.3 mm 3 mps 710 mmHg 92%
    10:00 -1°C° 0.3 mm 3 mps 711 mmHg 91%
    11:00 -1°C° 0.4 mm 2 mps 711 mmHg 90%
    12:00 +1°C° 0.4 mm 2 mps 711 mmHg 90%
    13:00 +1°C° 0.4 mm 2 mps 711 mmHg 89%
    14:00 +1°C° 0.3 mm 2 mps 712 mmHg 90%
    15:00 -1°C° 0.3 mm 2 mps 712 mmHg 91%
    16:00 -1°C° 0.3 mm 2 mps 712 mmHg 92%
    17:00 -2°C° 0.1 mm 2 mps 713 mmHg 93%
    18:00 -3°C° 0.1 mm 2 mps 714 mmHg 94%
    19:00 -2°C° 0.1 mm 1 mps 714 mmHg 95%
    20:00 -2°C° 0.1 mm 1 mps 715 mmHg 95%
    21:00 -2°C° 0.1 mm 1 mps 715 mmHg 94%
    22:00 -3°C° 0.1 mm 1 mps 716 mmHg 94%
    23:00 -3°C° 0 mm 1 mps 716 mmHg 94%

    17 December, Sunday

    Time Temperature Precipitation Wind Pressure Humidity
    00:00 -6°C° 0 mm 2 mps 717 mmHg 93%
    01:00 -6°C° 0 mm 2 mps 717 mmHg 92%
    02:00 -7°C° 0 mm 2 mps 718 mmHg 91%
    03:00 -7°C° 0 mm 2 mps 718 mmHg 90%
    04:00 -7°C° 0 mm 2 mps 718 mmHg 90%
    05:00 -7°C° 0.1 mm 2 mps 719 mmHg 89%
    06:00 -7°C° 0.1 mm 2 mps 719 mmHg 89%
    07:00 -7°C° 0.1 mm 2 mps 720 mmHg 89%
    08:00 -6°C° 0.1 mm 2 mps 720 mmHg 88%
    09:00 -5°C° 0.1 mm 2 mps 721 mmHg 88%
    10:00 -4°C° 0.1 mm 2 mps 721 mmHg 87%
    11:00 -1°C° 0 mm 1 mps 721 mmHg 85%
    12:00 0°C° 0 mm 1 mps 721 mmHg 84%
    13:00 +1°C° 0 mm 1 mps 721 mmHg 82%
    14:00 0°C° 0 mm 1 mps 722 mmHg 85%
    15:00 0°C° 0 mm 1 mps 722 mmHg 87%
    16:00 -1°C° 0 mm 1 mps 722 mmHg 90%
    17:00 -2°C° 0 mm 1 mps 723 mmHg 90%
    18:00 -5°C° 0 mm 2 mps 723 mmHg 90%
    19:00 -6°C° 0 mm 2 mps 724 mmHg 90%
    20:00 -6°C° 0 mm 2 mps 724 mmHg 88%
    21:00 -7°C° 0 mm 2 mps 725 mmHg 87%
    22:00 -7°C° 0 mm 2 mps 725 mmHg 86%
    23:00 -7°C° 0 mm 2 mps 725 mmHg 85%

    18 December, Monday

    Time Temperature Precipitation Wind Pressure Humidity
    00:00 -7°C° 0 mm 2 mps 725 mmHg 84%
    01:00 -7°C° 0 mm 2 mps 725 mmHg 83%
    02:00 -7°C° 0 mm 2 mps 725 mmHg 82%
    03:00 -7°C° 0 mm 2 mps 725 mmHg 81%
    04:00 -6°C° 0 mm 2 mps 724 mmHg 80%
    05:00 -5°C° 0 mm 2 mps 724 mmHg 81%
    06:00 -4°C° 0 mm 2 mps 724 mmHg 81%
    07:00 -4°C° 0 mm 2 mps 724 mmHg 82%
    08:00 -3°C° 0.1 mm 2 mps 724 mmHg 84%
    09:00 -2°C° 0.1 mm 2 mps 724 mmHg 85%
    10:00 -1°C° 0.1 mm 2 mps 723 mmHg 87%
    11:00 +1°C° 0.3 mm 2 mps 722 mmHg 87%
    12:00 +2°C° 0.3 mm 2 mps 721 mmHg 88%
    13:00 +2°C° 0.3 mm 2 mps 721 mmHg 89%
    14:00 +2°C° 1.1 mm 2 mps 720 mmHg 90%
    15:00 +2°C° 1.1 mm 2 mps 720 mmHg 92%
    16:00 +2°C° 1.1 mm 2 mps 719 mmHg 93%
    17:00 +2°C° 1 mm 2 mps 719 mmHg 94%
    18:00 +2°C° 1 mm 2 mps 720 mmHg 94%
    19:00 +2°C° 1 mm 2 mps 720 mmHg 95%
    20:00 +2°C° 0.7 mm 2 mps 720 mmHg 95%
    21:00 +2°C° 0.7 mm 2 mps 720 mmHg 95%
    22:00 +2°C° 0.7 mm 2 mps 720 mmHg 95%
    23:00 +2°C° 0.5 mm 2 mps 720 mmHg 95%
    Show more